Location: Acequia del Cap
(41.7000°N, 0.6167°E)
Time: 17:07:36
(UTC+00:00)

Helios 1B rocket - Pass Details

Date: 07 August 2020
Orbit: 575 x 583 km, 98.1° (Epoch: 23 September)

Event Time Altitude Azimuth Distance (km) Brightness Sun altitude
Rises 00:45:42 0° 10° (N) 2,796 7.1 -31.1°
Reaches altitude 10° 00:47:51 10° 9° (N) 1,893 5.9 -31.1°
Enters shadow 00:49:54 29° 3° (N) 1,084 4.3 -31.0°
